User: anonymous   Login
Location: Unspecified
(0.0000°N, 0.0000°E)
Time: 23:51:22
(UTC+00:00)
Language:

STARLINK-5413 - Orbit

View from above orbital plane
View from above orbital plane
View from above satellite
View from above satellite

Ground track
Ground track

The orbit is defined by the following mean orbital elements,

1 54808U          26145.09732860 +.00000000 +00000-0 +33549-4 0 00009
2 54808  53.2126  31.2823 0001520  81.5458 278.5707 15.08834267    04
Epoch (UTC): 25 May 2026 02:20:09
Eccentricity: 0.0001520
inclination: 53.2126°
perigee height: 539 km
apogee height: 541 km
right ascension of ascending node: 31.2823°
argument of perigee: 81.5458°
revolutions per day: 15.08834267
mean anomaly at epoch: 278.5707°

The dashed part of the orbit path shows where the satellite is in the earth's shadow,  

DLR